Flag for Canada Weather past 2 weeks in Toronto, Ontario, Canada

Now
73 °F

Passing clouds.


Feels Like: 77 °F
Forecast: 60 / 72 °F
Wind: 8 mph from North

Location: Toronto Pearson International Airport

Current Time: Jul 24, 2014 at 7:01:21 PM

Latest Report: Jul 24, 2014 at 6:00 PM


Visibility: 15 mi

Pressure: 30.01 "Hg

Humidity: 41%

Dew point: 48 °F

Location of TorontoLocation

Historic Weather in Toronto — Graph

°F

Toronto temperature yesterday

Maximum temperature yesterday: 79 °F (at 12:00 AM)
Minimum temperature yesterday: 63 °F (at 11:00 PM)
Average temperature yesterday: 70 °F

Past Weeks' High & Low Weather Summary

 TemperatureHumidityPressure
High86 °F (Jul 22, 7:00 PM)100% (Jul 19, 9:00 PM)30.25 "Hg (Jul 19, 9:00 PM)
Low52 °F (Jul 17, 5:00 AM)29% (Jul 18, 6:00 PM)29.66 "Hg (Jul 15, 10:00 AM)
Average68 °F66%30.02 "Hg
* Reported Jul 9 6:00 PM — Jul 24 6:00 PM, Toronto, Weather by CustomWeather, © 2014

Note: Actual official high and low records may vary slightly from our data, if they occured in-between our weather recording intervals... More about our weather records

Advertising

Toronto weather history for previous 24 hours

 ConditionsComfort  
Time TempWeatherWind HumidityBarometerVisibility
6:00 PM
Jul 24
73 °FPassing clouds.8 mph41%30.01 "Hg15 mi
5:00 PM75 °FScattered clouds.9 mph39%30.01 "Hg15 mi
4:00 PM75 °FPartly sunny.6 mph39%30.03 "Hg15 mi
3:00 PM73 °FPartly sunny.7 mph38%30.04 "Hg15 mi
2:00 PM72 °FPartly sunny.7 mph41%30.05 "Hg15 mi
1:00 PM70 °FPartly sunny.3 mph40%30.06 "Hg15 mi
12:03 PM68 °FPartly sunny.8 mph46%30.08 "Hg15 mi
12:00 PM70 °FPartly sunny.13 mph43%30.08 "Hg15 mi
11:00 AM68 °FPartly sunny.9 mph46%30.09 "Hg15 mi
10:00 AM66 °FBroken clouds.12 mph46%30.08 "Hg15 mi
9:00 AM64 °FPassing clouds.9 mph56%30.08 "Hg15 mi
8:00 AM61 °FPassing clouds.10 mph68%30.08 "Hg15 mi
7:00 AM59 °FScattered clouds.15 mph68%30.06 "Hg15 mi
6:00 AM57 °FPassing clouds.10 mph72%30.06 "Hg15 mi
5:00 AM57 °FPassing clouds.14 mph72%30.05 "Hg15 mi
4:00 AM59 °FPassing clouds.10 mph72%30.03 "Hg15 mi
3:00 AM59 °FPassing clouds.10 mph77%30.02 "Hg15 mi
2:00 AM59 °FPassing clouds.9 mph77%30.02 "Hg15 mi
1:00 AM61 °FClear.12 mph72%30.02 "Hg15 mi
12:00 AM61 °FClear.13 mph68%30.02 "Hg15 mi
11:00 PM
Jul 23
63 °FClear.8 mph68%30.02 "Hg15 mi
10:00 PM64 °FPassing clouds.10 mph64%30.01 "Hg15 mi
9:00 PM66 °FPassing clouds.14 mph64%30.00 "Hg15 mi
8:00 PM66 °FScattered clouds.13 mph68%29.99 "Hg15 mi
7:00 PM68 °FPartly sunny.16 mph64%29.98 "Hg15 mi
Weather by CustomWeather, © 2014

See weather overviewHow to use our weather pages